SL-8 R/B (21088 NORAD) Tracking and Keplerian Element Data

This shows tracking and keplerian element data for the satellite.

Feedback or suggestion? Click here.




ElementValue
Catalog21088
NameSL-8 R/B
Epoch Orbit65606
Epoch Day13.14214322
Epoch Year2024
RAAN35.1041
Inclination82.9411
Eccentricity0.0023949
Argument of Perigee79.0017
Mean Anonmoly344.4151
Mean Motion13.77306457
Decay Rate1.76E-06
L11 21088U 91006B 24013.14214322 .00000176 00000+0 16163-3 0 9997
L22 21088 82.9411 35.1041 0023949 79.0017 344.4151 13.77306457656069



Live tracking and technical data element details for SL-8 R/B (NORAD 21088). SL-8 R/B can be tracked NOW for your location showing map with azimuth and elevation plus other details from your city location.







IsCatalogInMostPopularTable: catalog: 21088, numindb: 359
Update: records affected: 1



GetName: 21088 SL-8 R/B

Hit Count: updated at: Sun, 14 Apr 2024 22:50:43 GMT